Аэропорт
Хомутово (UHSS)

 UHSS / UUS
ЗЦ Хабаровск
Хабаровск (UHHH)
Хабаровск (UHHH)
 46.88870, 142.71800  / 59 ft

 UHSS 201200Z 36002MPS 5000 FU NSC M20/M22 Q1022 R01/810260 NOSIG RMK QFE765/1020
 TAF UHSS 200740Z 2009/2115 33003MPS 9999 BKN030CB TEMPO 2020/2109 2000 SHSN BKN011CB
UHSS_j_0220
показать схемы
Название сценария Тип сценария Flight Simulator 9 Flight Simulator X Prepar3D v2 Prepar3D v3 Prepar3D v4 Prepar3D v5 xPlane
FSX-UHSS-2015 бесплатный
P3D-UHSS-2015 бесплатный
UHSS P3Dv4 бесплатный
UHSS-FS9 бесплатный
UHSS_XPL бесплатный

Аэропорт Южно-Сахалинск имени Антона Чехова или Хомутово (IATA: UUS, ICAO: UHSS) — международный аэропорт федерального значения Южно-Сахалинска, расположенный в десяти километрах от центра города, в планировочном районе Южно-Сахалинска Хомутово.

Размеры (м) ИВПП 01/19 3400x60 Покрытие полимерный асфальтбетон. Классификационное число ВПП (PCN) 43/R/A/X/T.

 

 



2020 © VATRUS division (Privacy Policy)